Historyczne dane pomiarowe

Dodano dane terminowe – wersja testowa.

Dane z okresu 1951-2019

Wersja bazy: 1.34 [2019-03-16, lista zmian], aktualizacja planowana na 2019-04-15

Dane meteo z obszaru Polski uzyskane na podstawie danych udostępnionych przez Instytut Meteorologii i Gospodarki Wodnej – Państwowy Instytut Badawczy.

 

Wybierz Datę:    

       

TemperaturaWilgotnośćWiatrCiśnienieOpadyŚniegCzas trwania zjawisk
 Stacja t tx tn tng RH VA  wxwx mslp ppp RRR   cm mm wxwxwxwxwxwxwx
1956-11-09 -6.7 -4.1-12.1-14.0 83.8- 5.7 1.7---- 0.0-- 2---------
1956-11-08 -7.2 -3.6 -9.4-11.0 84.3- 2.3 3.3---- 0.0-- 3---------
1956-11-07 -3.0 0.5 -6.1 -5.6 86.0- 5.0 4.7---- 0.2-- 3---------
1956-11-06 -1.4 1.5 -3.1 -3.0 93.8- 4.7 3.3---- 2.2------------
1956-11-05 -0.5 1.5 -7.5 -9.4 89.8- 5.3 4.0---- 4.0------------
1956-11-04 -2.4 2.4 -5.6 -5.5 92.3- 3.0 1.0---- 0.0------------
1956-11-03 -1.9 0.3 -6.3 -8.0 98.8- 7.3 2.3---- 0.2------------
1956-11-02 -2.4 0.3 -4.6 -4.5 95.5- 5.3 1.7---- 1.0------------
1956-11-01 -2.1 2.9 -9.5-11.5 95.5- 5.3 4.3---- 0.0------------
1956-10-31 -6.4 -1.7 -8.9 -6.0 93.0- 4.0 3.0---- 0.0------------
1956-10-30 0.4 4.9 -2.6 1.0100.0- 8.0 4.0---- 0.1------------
1956-10-29 4.7 10.8 0.6 -1.0 83.5- 3.3 1.7---- 0.4------------
1956-10-28 9.8 12.0 7.5 6.5 94.8- 8.0 2.3---- 2.2------------
1956-10-27 7.3 10.6 2.3 0.6 95.5- 8.0 3.7---- 0.0------------
1956-10-26 8.0 15.8 1.5 -1.0 87.3- 0.0 2.3---- 0.0------------
1956-10-25 7.3 15.5 0.9 -0.5 89.3- 0.0 2.0---- 0.0------------
1956-10-24 8.6 14.4 4.7 3.4 89.8- 5.3 2.0---- 0.0------------
1956-10-23 9.2 11.4 7.2 5.6 93.5- 8.0 2.7---- 0.0------------
1956-10-22 10.5 14.0 8.3 7.0 92.8- 5.3 3.3---- 0.0------------
1956-10-21 10.8 14.0 7.7 6.0 94.3- 7.0 1.7---- 0.0------------
1956-10-20 9.0 10.0 7.9 7.5 98.5- 8.0 2.7---- 0.9------------
1956-10-19 9.4 12.2 7.0 6.0 86.5- 8.0 4.3---- 0.2------------
1956-10-18 6.8 12.6 -3.7 -5.2 78.0- 7.3 1.3---- 0.0------------
1956-10-17 0.9 10.2 -4.4 -5.8 88.8- 0.0 0.7---- 0.0------------
1956-10-16 2.3 8.5 -0.6 -3.2 90.5- 4.3 1.7---- 0.0------------
1956-10-15 5.3 10.5 0.1 -1.5 81.0- 4.3 3.7---- 0.0------------
1956-10-14 6.9 9.4 4.5 5.8 77.3- 6.0 6.3---- 1.4------------
1956-10-13 8.5 9.4 3.7 2.4 84.8- 8.0 5.0---- 0.6------------
1956-10-12 8.2 11.2 4.3 3.5 82.3- 8.0 4.3---- 0.0------------
1956-10-11 5.5 8.9 -2.9 -4.5 74.5- 7.7 4.0---- 0.0------------
1956-10-10 2.3 6.5 -0.3 -1.8 76.0- 2.0 4.0---- 0.0------------
1956-10-09 3.9 10.5 -1.1 -2.5 79.3- 2.3 1.3---- 0.0------------
1956-10-08 3.7 11.0 0.6 -0.4 88.0- 2.3 3.0---- 0.0------------
1956-10-07 4.8 5.5 0.6 0.0 89.3- 8.0 6.3---- 1.2------------
1956-10-06 7.6 14.4 3.1 5.0 93.0- 8.0 4.7---- 6.0------------
1956-10-05 9.2 13.5 6.8 5.6 95.8- 4.7 1.0---- 0.0------------
1956-10-04 9.2 15.4 8.0 6.6 96.0- 8.0 1.7---- 10.4------------
1956-10-03 17.0 23.6 14.1 12.0 72.5- 5.3 4.3---- 0.2------------
1956-10-02 18.3 25.5 12.3 8.5 67.0- 0.0 3.7---- 0.0------------
1956-10-01 13.6 23.0 2.7 1.0 85.8- 4.0 2.0---- 0.0------------
1956-09-30 12.6 19.6 8.4 11.0 87.8- 4.0 2.7---- 0.0------------
1956-09-29 15.5 20.0 10.4 8.0 80.3- 8.0 4.0---- 0.0------------
1956-09-28 14.7 20.2 12.2 9.5 84.8- 5.0 4.0---- 0.0------------
1956-09-27 14.4 21.8 3.1 0.0 58.8- 5.0 2.0---- 0.0------------
1956-09-26 10.4 21.5 1.6 -2.0 76.5- 0.0 1.7---- 0.0------------
1956-09-25 8.9 18.5 -1.1 -3.4 77.8- 1.7 1.7---- 0.0------------
1956-09-24 6.5 13.5 -0.4 -3.5 64.8- 0.0 2.3---- 0.0------------
1956-09-23 8.1 13.6 3.1 0.0 81.5- 6.0 2.7---- 0.0------------
1956-09-22 10.7 18.6 1.9 -0.5 78.8- 0.3 0.7---- 0.0------------
1956-09-21 10.4 18.5 4.5 1.8 85.0- 3.7 1.3---- 0.0------------
1956-09-20 7.4 16.0 -0.9 -2.6 84.8- 1.7 2.3---- 0.0------------
1956-09-19 6.8 15.0 2.3 -1.0 85.0- 1.3 0.7---- 0.0------------
1956-09-18 7.5 11.6 3.7 2.0 91.8- 7.7 2.7---- 0.3------------
1956-09-17 7.8 13.6 4.9 5.0 92.3- 8.0 3.0---- 0.6------------
1956-09-16 11.7 15.7 7.7 5.2 78.0- 7.3 4.3---- 0.1------------
1956-09-15 11.4 16.2 2.6 -0.4 78.3- 4.7 3.0---- 0.0------------
1956-09-14 7.2 12.5 4.6 5.0 84.5- 5.0 4.0---- 0.0------------
1956-09-13 7.8 11.9 5.7 5.0 90.8- 8.0 3.3---- 1.2------------
1956-09-12 11.1 13.5 9.2 7.0 94.0- 8.0 2.7---- 5.0------------
1956-09-11 13.0 17.2 9.7 7.0 94.3- 8.0 3.3---- 0.9------------
315.9 ms

 

Źródłem pochodzenia danych jest Instytut Meteorologii i Gospodarki Wodnej – Państwowy Instytut Badawczy. Dane Instytutu Meteorologii i Gospodarki Wodnej – Państwowego Instytutu Badawczego zostały przetworzone.

Dane źródłowe można odnaleźć na stronie https://dane.imgw.pl